SCP
0 0 0 0 0 0 0 0 0 0 0 0 0 0 0 0 0 0 0 0 0 0 0 0 0 0 0 0 0 0 0 0 0 0 0 0 0 0 0 0 0 0 0
0 0 0 0 0 0 0 0 0 0 0 0 0 0 0 0 0 0 0 0 0 0 0 0 0 0 0 0 0 0 0 0 0 0 0 0 0 0 0 0 0 0 0
0 0 0 0 0 0 0 0 0 0 0 0 0 0 0 0 0 0 0 0 0 0 0 0 0 0 0 0 0 0 0 0 0 0 0 0 0 0 0 0 0 0 0
0 0 0 0 0 0 0 0 0 0 0 0 0 0 0 0 0 0 0 0 0 0 0 0 0 0 0 0 0 0 0 0 0 0 0 0 0 0 0 0 0 0 0
0 0 0 0 0 0 0 0 0 0 0 0 0 0 0 0 0 0 0 0 0 0 0 0 0 0 0 0 0 0 0 0 0 0 0 0 0 0 0 0 0 0 0
0 0 0 0 0 0 0 0 0 0 0 0 0 0 0 0 0 0 0 0 0 0 0 0 0 0 0 0 0 0 0 0 0 0 0 0 0 0 0 0 0 0 0
0 0 0 0 0 0 0 0 0 0 0 0 0 0 0 0 0 0 0 0 0 0 0 0 0 0 0 0 0 0 0 0 0 0 0 0 0 0 0 0 0 0 0
0 0 0 0 0 0 0 0 0 0 0 0 0 0 0 0 0 0 0 0 0 0 0 0 0 0 0 0 0 0 0 0 0 0 0 0 0 0 0 0 0 0 0
0 0 0 0 0 0 0 0 0 0 0 0 0 0 0 0 0 0 0 0 0 0 0 0 0 0 0 0 0 0 0 0 0 0 0 0 0 0 0 0 0 0 0
0 0 0 0 0 0 0 0 0 0 0 0 0 0 0 0 0 0 0 0 0 0 0 0 0 0 0 0 0 0 0 0 0 0 0 0 0 0 0 0 0 0 0
0 0 0 0 0 0 0 0 0 0 0 0 0 0 0 0 0 0 0 0 0 0 0 0 0 0 0 0 0 0 0 0 0 0 0 0 0 0 0 0 0 0 0
0 0 0 0 0 0 0 0 0 0 0 0 0 0 0 0 0 0 0 0 0 0 0 0 0 0 0 0 0 0 0 0 0 0 0 0 0 0 0 0 0 0 0
0 0 0 0 0 0 0 0 0 0 0 0 0 0 0 0 0 0 0 0 0 0 0 0 0 0 0 0 0 0 0 0 0 0 0 0 0 0 0 0 0 0 0
0 0 0 0 0 0 0 0 0 0 0 0 0 0 0 0 0 0 0 0 0 0 0 0 0 0 0 0 0 0 0 0 0 0 0 0 0 0 0 0 0 0 0
0 0 0 0 0 0 0 0 0 0 0 0 0 0 0 0 0 0 0 0 0 0 0 0 0 0 0 0 0 0 0 0 0 0 0 0 0 0 0 0 0 0 0
0 0 0 0 0 0 0 0 0 0 0 0 0 0 0 0 0 0 0 0 0 0 0 0 0 0 0 0 0 0 0 0 0 0 0 0 0 0 0 0 0 0 0
0 0 0 0 0 0 0 0 0 0 0 0 0 0 0 0 0 0 0 0 0 0 0 0 0 0 0 0 0 0 0 0 0 0 0 0 0 0 0 0 0 0 0
0 0 0 0 0 0 0 0 0 0 0 0 0 0 0 0 0 0 0 0 0 0 0 0 0 0 0 0 0 0 0 0 0 0 0 0 0 0 0 0 0 0 0
0 0 0 0 0 0 0 0 0 0 0 0 0 0 0 0 0 0 0 0 0 0 0 0 0 0 0 0 0 0 0 0 0 0 0 0 0 0 0 0 0 0 0
0 0 0 0 0 0 0 0 0 0 0 0 0 0 0 0 0 0 0 0 0 0 0 0 0 0 0 0 0 0 0 0 0 0 0 0 0 0 0 0 0 0 0
0 0 0 0 0 0 0 0 0 0 0 0 0 0 0 0 0 0 0 0 0 0 0 0 0 0 0 0 0 0 0 0 0 0 0 0 0 0 0 0 0 0 0
1 0 0 0 0 0 0 0 0 0 0 0 0 0 0 0 0 0 0 0 0 0 0 0 0 0 0 0 0 0 0 0 0 0 0 0 0 0 0 0 0 0 0
1 1 1 0 0 0 0 0 0 0 0 0 0 0 0 0 0 0 0 0 0 0 0 0 0 0 0 0 0 0 0 0 0 0 0 0 0 0 0 0 0 0 0
1 1 1 1 0 0 0 0 0 0 0 0 0 0 0 0 0 0 0 0 0 0 0 0 0 0 0 0 0 0 0 0 0 0 0 0 0 0 0 0 0 0 0
1 1 1 1 0 0 0 0 0 0 0 0 0 0 0 0 0 0 0 0 0 0 0 0 0 0 0 0 0 0 0 0 0 0 0 0 0 0 0 0 0 0 0
1 1 1 1 0 0 0 0 0 0 0 0 0 0 0 0 0 0 0 0 0 0 0 0 0 0 0 0 0 0 0 0 0 0 0 0 0 0 0 0 0 0 0
Wind_Speed
1 1 4 7 8 9 10 10 11 12 13 14 15 16 16 17 18 19 19 20 20 20 20 20 20 20 20 19 19 19 18 17 17 16 16 15 15 15 15 15 14 11 16
4 3 6 7 8 9 10 12 13 14 14 15 15 16 17 18 18 19 19 19 19 20 20 19 19 19 19 18 18 18 17 17 16 15 15 14 15 15 15 14 13 9 15
5 3 5 8 9 10 11 12 13 14 15 15 15 16 17 17 18 18 19 19 19 19 19 19 19 18 18 17 17 16 16 15 15 15 14 7 9 14 14 14 14 15 14
6 4 6 10 10 11 11 12 13 14 15 15 16 16 17 17 17 18 18 18 18 18 18 18 18 17 17 16 15 15 15 15 14 14 7 6 7 13 14 13 14 14 14
5 4 6 11 11 12 12 12 12 14 14 15 16 16 16 17 17 17 17 17 17 17 18 17 17 16 16 15 14 13 13 13 13 10 6 5 5 12 14 14 14 13 13
5 4 7 12 11 11 11 12 12 13 14 14 15 15 16 16 16 16 17 16 16 16 16 16 16 15 14 14 13 12 12 11 10 6 5 5 5 12 14 14 13 13 13
6 4 6 11 11 11 11 12 12 12 13 13 14 14 15 15 15 16 15 15 15 15 15 15 14 14 13 12 12 11 10 10 7 5 5 5 6 12 14 13 13 13 12
7 5 6 10 11 11 11 11 11 12 12 12 13 14 14 14 14 14 14 14 14 14 14 13 13 12 11 10 9 9 9 9 8 7 5 5 9 12 13 13 12 12 12
7 5 4 5 6 9 10 10 10 11 11 12 12 13 13 13 13 13 13 13 13 13 12 11 11 10 9 8 7 8 9 9 6 5 6 4 10 12 13 13 12 12 11
6 5 4 3 3 3 5 9 10 10 11 12 12 12 13 13 13 13 11 11 12 11 10 10 9 8 7 6 5 7 8 8 5 5 4 6 12 12 12 12 12 11 11
5 4 4 4 3 3 3 7 7 9 10 10 9 12 10 5 5 7 9 11 11 10 9 8 7 6 5 4 4 5 6 4 5 4 3 8 12 12 12 12 12 11 11
6 5 5 5 4 3 4 4 2 3 4 3 3 4 4 3 4 6 9 11 10 9 8 7 6 5 3 1 2 4 2 5 4 4 5 11 11 12 12 12 12 11 11
7 6 5 5 4 4 3 3 2 2 2 2 3 4 3 3 3 3 3 5 5 5 3 3 2 1 1 1 1 2 3 4 3 3 6 12 11 12 12 12 12 11 11
6 6 5 5 5 4 4 3 3 2 2 2 3 4 4 3 3 3 2 3 2 2 2 2 1 1 2 2 2 3 4 3 3 3 5 12 12 12 12 12 12 11 11
7 6 5 6 5 5 4 3 4 3 3 3 3 3 5 4 4 3 2 2 2 2 2 2 2 2 2 2 2 3 4 5 4 4 3 10 11 11 12 12 11 11 11
7 6 5 6 5 5 4 3 3 3 3 3 3 4 5 4 4 3 3 2 2 2 2 2 3 2 2 2 2 3 4 4 4 4 3 5 9 10 10 10 10 11 11
8 6 6 6 5 5 4 4 3 3 3 3 3 3 4 4 4 4 3 2 2 2 2 2 2 2 2 2 2 2 3 3 4 4 4 3 4 8 10 10 10 10 11
9 7 6 7 6 5 4 3 3 3 3 2 2 3 4 4 4 3 2 2 2 2 2 2 2 2 1 1 1 1 2 2 4 4 4 3 3 3 6 9 8 8 9
9 8 7 6 6 4 4 3 3 3 2 2 2 2 3 4 4 3 2 2 2 2 1 2 2 2 2 1 1 1 2 2 2 3 3 4 3 3 2 5 8 8 8
9 8 7 6 6 5 3 2 2 2 1 1 2 2 3 3 4 3 2 2 2 2 1 1 2 2 2 2 2 2 1 1 1 2 3 3 3 4 3 3 3 4 7
8 7 7 7 6 4 3 2 2 1 1 1 1 3 3 3 4 3 3 2 2 2 2 2 2 2 1 2 2 2 2 1 0 1 1 1 2 2 3 3 2 2 2
10 8 8 8 6 5 4 3 2 2 2 1 1 2 3 3 4 4 4 3 2 2 2 2 2 2 1 2 3 2 1 2 2 0 0 1 1 1 2 3 3 3 2
10 10 9 8 6 5 4 2 2 2 1 0 0 1 3 3 3 4 4 3 3 3 2 2 3 3 2 1 2 3 3 2 1 2 1 0 1 1 2 2 3 3 3
12 10 8 8 7 6 5 4 3 3 2 2 2 2 2 3 3 4 4 4 3 3 3 3 3 3 3 2 0 1 2 3 2 0 2 1 0 1 1 2 2 2 2
12 10 9 8 7 7 6 6 5 3 2 2 1 2 2 2 3 4 4 4 4 3 3 3 3 3 2 3 2 1 1 1 2 2 1 1 1 1 1 1 1 1 2
11 10 9 9 8 7 7 6 6 5 4 3 2 2 2 2 2 3 4 4 4 3 3 3 3 3 2 2 2 2 2 2 2 2 2 1 1 1 1 0 1 2 2
Wind_Direction
178 127 91 89 85 81 77 72 71 80 91 91 94 98 100 102 104 107 109 110 112 114 116 116 117 118 119 119 119 120 120 120 122 123 123 123 123 122 121 119 118 118 122
154 135 105 98 92 87 83 77 75 85 93 94 95 98 101 104 106 108 110 112 114 115 116 116 117 119 120 120 121 121 120 119 120 121 121 123 123 123 123 123 122 125 127
135 128 113 105 99 93 87 83 81 88 94 95 96 100 103 105 109 111 112 113 116 117 117 117 118 118 118 119 121 121 120 120 119 118 115 112 119 123 125 124 126 126 129
135 134 121 111 105 98 92 89 89 90 94 97 98 100 102 104 107 111 113 115 117 118 119 119 119 119 119 119 119 121 121 121 121 119 110 110 119 123 124 124 126 128 131
126 130 125 115 111 106 100 95 93 95 97 101 103 103 104 106 109 112 115 116 118 120 121 122 122 122 122 121 122 122 122 121 120 114 104 105 112 128 128 127 129 131 132
120 123 125 119 116 113 107 101 98 99 100 103 107 108 109 109 112 114 116 117 118 120 122 123 124 123 123 123 124 125 124 122 117 109 111 114 121 133 133 133 133 134 134
120 116 122 121 119 116 112 109 107 106 106 109 112 113 113 113 114 116 117 119 121 122 125 126 126 125 125 125 125 128 127 123 116 116 119 124 132 137 137 137 138 138 138
130 126 125 125 123 123 121 118 116 115 115 115 117 118 117 117 117 119 122 123 124 123 126 128 129 129 129 128 126 129 130 126 128 131 124 132 143 143 142 142 142 142 144
130 128 120 122 127 131 129 126 124 122 124 123 124 124 123 123 123 123 124 125 126 127 129 131 132 134 134 135 134 132 134 130 127 130 139 141 147 149 150 150 149 149 150
132 132 128 119 119 132 134 136 132 130 133 134 133 134 134 132 131 131 130 132 134 135 136 137 139 142 143 145 141 137 137 131 130 134 142 156 156 156 157 157 156 157 158
141 145 144 141 145 145 148 147 140 137 138 140 141 142 138 131 132 137 143 144 144 145 147 149 152 155 158 159 155 147 136 136 135 140 154 163 164 165 164 164 164 164 166
152 158 158 160 166 162 157 142 144 139 133 133 141 143 139 144 156 155 158 157 157 159 161 167 176 176 172 160 160 138 125 134 137 154 169 169 171 174 173 172 172 173 175
156 155 160 160 164 162 148 145 150 140 140 149 158 157 153 152 158 155 155 158 160 166 166 176 183 185 179 160 137 134 132 133 147 168 175 177 181 183 181 181 183 182 183
147 153 153 151 148 145 140 146 153 150 153 159 162 160 151 149 153 161 163 167 171 168 169 181 186 195 187 177 168 147 143 149 162 170 180 181 185 187 187 189 191 191 190
140 141 142 138 132 129 127 142 149 156 160 160 147 154 154 150 156 161 168 170 177 170 173 180 181 190 187 176 167 149 147 160 166 166 172 181 185 190 191 193 195 196 196
144 147 147 138 130 125 126 131 141 152 150 143 144 152 149 147 153 154 154 159 168 168 177 179 177 168 169 158 152 150 150 154 164 168 175 184 187 187 191 195 200 203 204
151 152 151 143 132 126 128 129 133 140 138 140 148 149 146 144 147 146 144 151 164 158 160 156 141 118 130 130 136 150 149 150 162 174 178 176 192 198 197 198 203 210 211
149 149 153 145 135 132 130 118 119 126 127 145 149 147 147 145 146 142 147 158 153 134 135 139 121 99 97 103 117 145 146 152 166 172 174 179 189 201 204 202 203 210 216
155 154 155 148 145 145 139 129 126 122 129 145 145 150 156 154 151 145 156 168 146 133 146 153 129 134 134 119 124 134 151 165 173 177 177 183 189 194 198 210 209 211 216
158 156 153 154 156 149 135 115 100 100 119 136 148 162 165 164 157 149 157 173 152 137 141 141 137 132 142 143 112 83 108 181 167 174 184 178 187 194 195 202 213 223 219
157 156 156 154 160 150 138 137 134 147 159 154 172 171 168 169 160 152 153 153 145 145 164 157 135 119 109 116 88 52 21 17 134 186 184 166 181 190 187 194 192 196 223
168 166 161 164 166 165 161 161 162 157 168 175 187 183 182 173 172 166 157 158 153 145 142 143 134 129 157 139 127 114 32 352 348 286 193 174 172 165 186 202 192 188 203
173 173 170 167 166 168 161 139 118 87 55 56 171 192 198 183 172 162 160 157 156 154 160 165 153 147 161 195 156 148 155 208 277 321 296 201 167 168 186 198 191 193 199
179 173 165 167 167 169 161 155 156 162 178 202 194 190 192 187 173 164 164 160 158 154 155 170 154 148 144 165 227 195 175 160 158 263 321 307 218 176 187 186 178 180 184
175 172 170 167 173 176 170 172 169 179 190 192 176 162 174 182 181 176 167 156 156 159 162 160 150 149 154 160 175 177 140 121 145 154 224 287 321 304 194 190 175 167 170
174 174 172 171 180 180 177 176 177 179 181 175 185 180 187 189 189 181 167 162 165 166 169 172 164 161 170 168 170 166 163 164 178 166 187 218 239 275 271 187 166 162 171